Location: Young's Pond
(41.2695°N, 72.7766°W)
Time: 19:16:15
(UTC-04:00)

CZ-4B R/B - Visible Passes

Search period start: 30 July 2014 00:00
Search period end: 09 August 2014 00:00
Orbit: 428 x 555 km, 97.5° (Epoch: 30 July)

Date Brightness Start Highest point End Pass type
(mag) Time Alt. Az. Time Alt. Az. Time Alt. Az.
30 Jul 3.2 22:42:38 25° NE 22:42:38 25° NE 22:44:40 10° N visible
31 Jul 4.6 00:17:09 11° WNW 00:17:09 11° WNW 00:17:21 10° WNW visible
31 Jul 3.7 22:20:19 15° NE 22:20:19 15° NE 22:21:46 10° NNE visible
31 Jul 4.1 23:54:49 18° NW 23:54:49 18° NW 23:56:00 10° NW visible
01 Aug 3.6 23:32:30 26° NNW 23:32:30 26° NNW 23:34:07 10° NNW visible
02 Aug 3.3 23:10:09 29° N 23:10:09 29° N 23:11:56 10° N visible
03 Aug 3.4 22:47:48 23° NNE 22:47:48 23° NNE 22:49:27 10° N visible
04 Aug 3.8 22:25:25 15° NE 22:25:25 15° NE 22:26:35 10° NNE visible
04 Aug 4.5 23:59:56 13° NW 23:59:56 13° NW 00:00:32 10° NW visible
05 Aug 4.1 23:37:33 19° NNW 23:37:33 19° NNW 23:38:41 10° NNW visible
06 Aug 3.7 23:15:10 23° N 23:15:10 23° N 23:16:30 10° N visible
07 Aug 3.6 22:52:45 20° NNE 22:52:45 20° NNE 22:54:02 10° N visible
08 Aug 3.9 22:30:20 14° NE 22:30:20 14° NE 22:31:13 10° NNE visible
